Location: Lancaster
(34.6980°N, 118.1360°W)
Time: 11:41:17
(UTC-07:00)

Vanguard 1 Rocket - Visible Passes

Search period start: 24 June 2018 00:00
Search period end: 04 July 2018 00:00
Orbit: 653 x 4224 km, 34.3° (Epoch: 23 June)

Date Brightness Start Highest point End Pass type
(mag) Time Alt. Az. Time Alt. Az. Time Alt. Az.
24 Jun 9.5 22:31:17 10° W 22:37:56 30° SSW 22:40:52 27° S visible
25 Jun 8.8 21:20:26 10° W 21:26:14 39° SSW 21:33:22 17° SE visible
25 Jun 10.3 23:48:05 10° WSW 23:50:37 14° SW 23:50:37 14° SW visible
26 Jun 9.8 22:35:29 10° WSW 22:41:18 22° SSW 22:43:10 21° SSW visible
27 Jun 9.1 21:24:11 10° W 21:29:33 29° SSW 21:35:46 16° SSE visible
28 Jun 10.1 22:40:33 10° SW 22:44:42 14° SSW 22:45:41 14° SSW visible
29 Jun 9.5 21:28:18 10° WSW 21:32:54 20° SSW 21:38:21 12° SSE visible
01 Jul 9.8 21:33:23 10° SW 21:36:17 13° SSW 21:39:51 10° S visible
